Regional Weather Roundup
Issued by NWS

Home | Current Version | Previous Version | Graphics & Text | Print | Product List | Glossary Off
Versions: 1 2 3 4 5 6 7 8 9 10 11 12 13 14 15 16 17 18 19 20 21 22 23 24 25 26 27 28 29 30 31 32 33 34 35 36 37 38 39 40 41 42 43 44 45 46 47 48 49 50

000
ASUS43 KMKX 170700
RWRWI

WISCONSIN REGIONAL WEATHER ROUNDUP
NATIONAL WEATHER SERVICE MILWAUKEE/SULLIVAN WI
200 AM CDT TUE OCT 17 2017

NOTE: "FAIR" INDICATES FEW OR NO CLOUDS BELOW 12,000 FEET WITH NO
SIGNIFICANT WEATHER AND/OR OBSTRUCTIONS TO VISIBILITY.

WIZ001-002-006>008-014>016-023>028-170800-
NORTHWEST WISCONSIN

CITY           SKY/WX    TMP DP  RH WIND       PRES   REMARKS
SUPERIOR ARPT  CLOUDY    50  38  65 SW5       29.90R
ASHLAND        CLOUDY    53  37  54 SW9       29.90R
HAYWARD        CLOUDY    47  36  65 SW5       29.94S
SIREN          CLOUDY    53  37  56 W6        29.94R
CUMBERLAND     CLOUDY    45  36  70 SW7       29.96R
RICE LAKE      CLOUDY    43  37  82 CALM      29.98R
CHETEK         CLOUDY    44  40  86 NE5       29.97R
LADYSMITH      CLOUDY    46  37  70 S3        29.99R
EAU CLAIRE     PTCLDY    43  39  86 CALM      29.98R
MENOMONIE      PTCLDY    51  38  60 SW5       29.98S
NEW RICHMOND   NOT AVBL
OSCEOLA        CLOUDY    43  38  82 E3        29.99R
$$

WIZ003>005-009-010-017-018-170800-
NORTH CENTRAL WISCONSIN

CITY           SKY/WX    TMP DP  RH WIND       PRES   REMARKS
MANITOWISH WTR CLOUDY    47  35  61 SW8       29.93S
ARBOR VITAE    CLOUDY    45  36  71 S6        29.94S
WOODRUFF       CLOUDY    45  36  71 S6        29.94S
RHINELANDER    CLOUDY    48  36  63 SW12      29.97S
EAGLE RIVER    CLOUDY    48  33  56 SW13G18   29.94S
LAND O LAKES   CLOUDY    45  35  67 CALM      29.95S
PHILLIPS       CLOUDY    47  36  65 SW6       29.96R
TOMAHAWK       CLOUDY    43  35  72 CALM      29.98R
MEDFORD        CLOUDY    48  36  63 SW9G16    29.98S
MERRILL        CLOUDY    47  36  64 SW6       29.99S
$$

WIZ029-030-035-036-043>047-170800-
CENTRAL WISCONSIN

CITY           SKY/WX    TMP DP  RH WIND       PRES   REMARKS
WAUSAU         CLOUDY    48  38  68 SW5       29.98F
MOSINEE        CLOUDY    45  36  70 S10       30.02F
MARSHFIELD     CLOUDY    43  35  73 S8        30.00F
STEVENS POINT  CLEAR     44  34  68 S8        30.03F
WAUPACA        CLEAR     46  37  72 S6        30.05F
WAUTOMA        CLEAR     38  36  92 CALM      30.06F
WISC RAPIDS    CLEAR     46  37  71 S6        30.03F
CAMP DOUGLAS   NOT AVBL
$$

WIZ011>013-019>022-031-037>040-048>050-170800-
NORTHEAST WISCONSIN

CITY           SKY/WX    TMP DP  RH WIND       PRES   REMARKS
ANTIGO         CLOUDY    46  36  66 SW10      29.99F
SHAWANO        PTCLDY    48  37  65 CALM      30.02F
OCONTO         CLEAR     47  37  68 SW5       30.02F
STURGEON BAY   CLEAR     51  38  60 SW13      30.02F
GREEN BAY      CLEAR     51  41  68 S8        30.04F
MANITOWOC      CLEAR     51  37  58 SW10      30.07F
APPLETON       CLEAR     48  34  57 SW13      30.04F
CLINTONVILLE   CLEAR     46  36  66 SW7       30.03F
OSHKOSH        CLEAR     49  38  65 S14       30.06F
$$

WIZ032>034-041-042-053>061-170800-
SOUTHWEST WISCONSIN

CITY           SKY/WX    TMP DP  RH WIND       PRES   REMARKS
LA CROSSE      CLEAR     54  42  64 S8        30.03S
SPARTA         CLEAR     51  38  60 S6        30.05S
VIROQUA        CLEAR     51  39  64 CALM      30.07S
BOSCOBEL       CLEAR     41  39  93 CALM      30.11R
PRAIRIE DU CHI CLEAR     55  37  49 CALM      30.09S
PLATTEVILLE    PTCLDY    49  39  69 S9        30.13F
$$

WIZ056-057-062-063-064-067-068-170800-
SOUTH CENTRAL WISCONSIN

CITY           SKY/WX    TMP DP  RH WIND       PRES   REMARKS
REEDSBURG      CLEAR     50  37  59 S3        30.08S
BARABOO/DELLS  CLEAR     52  35  51 SW12G18   30.08S
LONE ROCK      NOT AVBL
MINERAL POINT  CLOUDY    50  37  62 S7        30.12S
MADISON        PTCLDY    53  38  56 SW7       30.12S
MIDDLETON      PTCLDY    53  37  55 SW14      30.11S
WATERTOWN      CLEAR     46  39  76 S6        30.12S
MONROE         CLOUDY    46  36  66 S15       30.13S
JANESVILLE     CLEAR     48  36  61 S6        30.15S
$$

WIZ051-052-058>065-066-070>072-170800-
SOUTHEAST WISCONSIN

CITY           SKY/WX    TMP DP  RH WIND       PRES   REMARKS
MILWAUKEE      PTCLDY    50  39  66 SW12      30.14F
WAUKESHA       PTCLDY    45  36  70 CALM      30.15S
MILWAUKEE/TIMM CLOUDY    48  34  57 SW8       30.14S
RACINE         CLEAR     47  39  74 SW7       30.17S
BURLINGTON     CLEAR     38  38 100 CALM      30.15F
KENOSHA        CLEAR     47  37  68 SW7       30.16F
FOND DU LAC    CLEAR     51  36  56 SW12      30.09S
SHEBOYGAN      CLEAR     44  39  82 SW6       30.09F
WEST BEND      CLEAR     52  34  50 SW9       30.11S
JUNEAU         CLEAR     47  37  69 S5        30.13R
$$

LSZ147-162-170800-
LAKE SUPERIOR

STATION/POSITION TIME  TEMP    WIND        PRES    WAVE
                       AIR SEA DIR/SP/G            HT/PER
                 (UTC) (F)     (DEG/KT/KT) (MB)    (FT/S)
W MID LAKE BUOY  0550   55 53              1010.1R   4/ 5
DEVILS ISLAND    0600   57     240/ 22/ 27 1010.7R
SAXON HARBOR     0640   56     210/  8/ 15 1011.9R
$$

LMZ867-665-643>646-170800-
LAKE MICHIGAN

STATION/POSITION TIME  TEMP    WIND        PRES    WAVE
                       AIR SEA DIR/SP/G            HT/PER
                 (UTC) (F)     (DEG/KT/KT) (MB)    (FT/S)
S GREEN BAY BUOY 0630   56 58  210/ 19/ 23 1016.4F
N MID LAKE BUOY  0550   59 60  220/ 23/ 29 1016.8F   5/ 6
NORTHPORT PIER   0640   50     160/  3/  8 1015.6F
KEWAUNEE LAKESHO 0630   51     210/  8/ 14 1017.0F
SHEBOYGAN LAKESH 0600   50     200/ 10/ 11 1019.2F
PORT WASHINGTON  0640   47     210/  2/  3 1020.7F
S MID LAKE BUOY  0550   60 62  250/ 17/ 19 1021.8F   3/ 5
KENOSHA   LAKESH 0600   51     200/  7/  9 1021.3
$$

TC  - TEMPERATURE IN CELSIUS
VSB - VISIBILITY IN STATUTE MILES
WCI - WIND CHILL INDEX
HX  - HEAT INDEX





USA.gov is the U.S. government's official web portal to all federal, state and local government web resources and services.